Henderson, KY

1:03 PM CDT on May 24, 2018 (GMT -0500)
Henderson City-County

Weather History for KEHR - December, 2012

Change the Weather History Date:

Saturday, December 29, 2012

  Actual Average Record
Temperature  
Mean Temperature 26 °F -  
Max Temperature 32 °F 41 °F 71 °F (1984)
Min Temperature 17 °F 27 °F -2 °F (1935)
Degree Days  
Heating Degree Days 40    
Moisture  
Dew Point 19 °F    
Average Humidity 67    
Maximum Humidity 80    
Minimum Humidity 58    
Precipitation  
Precipitation 0.23 in - - ()
Sea Level Pressure  
Sea Level Pressure 30.09 in    
Wind  
Wind Speed 9 mph (WNW)    
Max Wind Speed 18 mph    
Max Gust Speed 24 mph    
Visibility 9 miles    
Events      
Averages and records for this station are not official NWS values.
T = Trace of Precipitation, MM = Missing Value Source: NWS Daily Summary

Daily Weather History Graph

Daily Weather History Graph

Search for Another Location

Airport or City:

Astronomy

Dec. 29, 2012 Rise Set
Actual Time 7:05 AM CST 4:40 PM CST
Civil Twilight 6:36 AM CST 5:09 PM CST
Nautical Twilight 6:03 AM CST 5:42 PM CST
Astronomical Twilight 5:31 AM CST 6:14 PM CST
Moon 6:11 PM CST (12/29) 7:40 AM CST (12/29)
Length of Visible Light 10h 33m
Length of Day
9h 34m
Full, 98% of the Moon is Illuminated
Dec 29
Full
Jan 4
Last Quarter
Jan 11
New
Jan 18
First Quarter
Jan 26
Full

Hourly Weather History & Observations

Time (CST) Temp. Windchill Dew Point Humidity Pressure Visibility Wind Dir Wind Speed Gust Speed Precip Events Conditions
12:15 AM 32.0 °F - 24.8 °F 75% 29.80 in 2.5 mi Calm Calm - 0.01 in   Overcast
12:35 AM 32.0 °F 26.4 °F 24.8 °F 75% 29.80 in 4.0 mi NW 5.8 mph - 0.03 in   Overcast
12:55 AM 32.0 °F 25.6 °F 24.8 °F 75% 29.82 in 3.0 mi NW 6.9 mph - 0.05 in   Overcast
1:15 AM - - - N/A% 29.81 in 2.0 mi NW 8.1 mph - 0.01 in   Overcast
1:35 AM - - - N/A% 29.82 in 2.5 mi NW 9.2 mph - 0.03 in   Overcast
1:55 AM 32.0 °F 24.8 °F 24.8 °F 75% 29.84 in 2.5 mi NW 8.1 mph - 0.04 in   Overcast
2:15 AM 32.0 °F 24.8 °F 24.8 °F 75% 29.84 in 3.0 mi WNW 8.1 mph - 0.02 in   Overcast
2:35 AM 32.0 °F 24.2 °F 24.8 °F 75% 29.85 in 4.0 mi NW 9.2 mph - 0.03 in   Overcast
2:55 AM 32.0 °F 24.2 °F 24.8 °F 75% 29.87 in 5.0 mi NW 9.2 mph - 0.05 in   Overcast
3:15 AM - - - N/A% 29.86 in 3.0 mi WNW 8.1 mph - 0.01 in   Overcast
3:35 AM 30.2 °F 21.9 °F 24.8 °F 80% 29.87 in 3.0 mi WNW 9.2 mph - 0.02 in   Overcast
4:15 AM 30.2 °F 20.8 °F 24.8 °F 80% 29.88 in 5.0 mi WNW 11.5 mph - N/A   Overcast
4:35 AM 30.2 °F 21.3 °F 24.8 °F 80% 29.89 in 9.0 mi WNW 10.4 mph - N/A   Overcast
5:15 AM 30.2 °F 21.3 °F 24.8 °F 80% 29.91 in 10.0 mi NW 10.4 mph - N/A   Overcast
5:35 AM 30.2 °F 22.6 °F 23.0 °F 75% 29.92 in 10.0 mi WNW 8.1 mph - N/A   Overcast
6:35 AM 30.2 °F 22.6 °F 23.0 °F 75% 29.94 in 10.0 mi NW 8.1 mph - N/A   Overcast
6:55 AM 30.2 °F 21.9 °F 23.0 °F 75% 29.96 in 10.0 mi WNW 9.2 mph - N/A   Overcast
7:15 AM 30.2 °F 21.3 °F 23.0 °F 75% 29.97 in 9.0 mi WNW 10.4 mph - N/A   Overcast
7:35 AM 30.2 °F 21.9 °F 23.0 °F 75% 29.98 in 9.0 mi WNW 9.2 mph - N/A   Overcast
7:55 AM 32.0 °F 22.5 °F 23.0 °F 69% 29.99 in 9.0 mi WNW 12.7 mph 16.1 mph 0.01 in   Overcast
8:15 AM 32.0 °F 24.2 °F 23.0 °F 69% 30.01 in 10.0 mi WNW 9.2 mph - 0.01 in   Overcast
8:35 AM 30.2 °F 21.3 °F 23.0 °F 75% 30.01 in 10.0 mi WNW 10.4 mph - 0.01 in   Overcast
9:15 AM 32.0 °F 23.6 °F 23.0 °F 69% 30.04 in 9.0 mi WNW 10.4 mph - N/A   Overcast
9:55 AM 32.0 °F 22.5 °F 23.0 °F 69% 30.05 in 10.0 mi WNW 12.7 mph - N/A   Overcast
10:15 AM 32.0 °F 22.1 °F 23.0 °F 69% 30.07 in 10.0 mi WNW 13.8 mph 18.4 mph N/A   Overcast
10:35 AM 32.0 °F 22.1 °F 21.2 °F 64% 30.07 in 10.0 mi WNW 13.8 mph 19.6 mph N/A   Overcast
10:55 AM 30.2 °F 20.2 °F 21.2 °F 69% 30.07 in 10.0 mi NW 12.7 mph - 0.02 in   Overcast
11:15 AM 32.0 °F 21.6 °F 21.2 °F 64% 30.07 in 10.0 mi NW 15.0 mph 20.7 mph 0.01 in   Overcast
11:35 AM 32.0 °F 22.1 °F 21.2 °F 64% 30.07 in 10.0 mi WNW 13.8 mph 21.9 mph 0.01 in   Overcast
11:55 AM 30.2 °F 19.8 °F 21.2 °F 69% 30.08 in 10.0 mi WNW 13.8 mph 19.6 mph 0.02 in   Overcast
12:15 PM 30.2 °F 18.9 °F 19.4 °F 64% 30.07 in 10.0 mi WNW 16.1 mph 19.6 mph N/A   Overcast
12:35 PM 30.2 °F 19.8 °F 19.4 °F 64% 30.08 in 10.0 mi NW 13.8 mph 18.4 mph N/A   Overcast
12:55 PM 30.2 °F 20.8 °F 19.4 °F 64% 30.09 in 10.0 mi NW 11.5 mph 20.7 mph N/A   Overcast
1:15 PM 30.2 °F 21.3 °F 19.4 °F 64% 30.09 in 10.0 mi WNW 10.4 mph 16.1 mph N/A   Overcast
1:35 PM 30.2 °F 21.3 °F 19.4 °F 64% 30.10 in 10.0 mi WNW 10.4 mph - 0.01 in   Overcast
1:55 PM 30.2 °F 20.8 °F 19.4 °F 64% 30.11 in 10.0 mi WNW 11.5 mph - 0.01 in   Overcast
2:15 PM 30.2 °F 19.8 °F 19.4 °F 64% 30.11 in 10.0 mi WNW 13.8 mph 19.6 mph N/A   Overcast
2:35 PM 30.2 °F 20.2 °F 19.4 °F 64% 30.12 in 10.0 mi WNW 12.7 mph - N/A   Overcast
2:55 PM 30.2 °F 19.3 °F 19.4 °F 64% 30.14 in 10.0 mi WNW 15.0 mph 21.9 mph N/A   Overcast
3:15 PM 30.2 °F 18.9 °F 19.4 °F 64% 30.15 in 10.0 mi WNW 16.1 mph 20.7 mph N/A   Overcast
3:35 PM 30.2 °F 18.1 °F 17.6 °F 60% 30.16 in 10.0 mi WNW 18.4 mph 24.2 mph N/A   Overcast
3:55 PM 28.4 °F 16.2 °F 17.6 °F 64% 30.17 in 10.0 mi WNW 17.3 mph 24.2 mph N/A   Overcast
4:15 PM 28.4 °F 15.8 °F 17.6 °F 64% 30.18 in 10.0 mi WNW 18.4 mph 21.9 mph N/A   Overcast
4:35 PM 26.6 °F 13.8 °F 15.8 °F 64% 30.20 in 10.0 mi WNW 17.3 mph 23.0 mph N/A   Overcast
4:55 PM 26.6 °F 14.3 °F 15.8 °F 64% 30.22 in 10.0 mi WNW 16.1 mph 20.7 mph N/A   Overcast
5:15 PM 26.6 °F 15.2 °F 15.8 °F 64% 30.23 in 10.0 mi WNW 13.8 mph - N/A   Overcast
5:35 PM 26.6 °F 16.2 °F 15.8 °F 64% 30.25 in 10.0 mi WNW 11.5 mph - N/A   Overcast
5:55 PM 26.6 °F 15.7 °F 15.8 °F 64% 30.26 in 10.0 mi WNW 12.7 mph 17.3 mph N/A   Overcast
6:15 PM 26.6 °F 16.2 °F 14.0 °F 59% 30.27 in 10.0 mi WNW 11.5 mph - N/A   Overcast
6:55 PM 26.6 °F 16.8 °F 14.0 °F 59% 30.28 in 10.0 mi West 10.4 mph - N/A   Overcast
7:15 PM 26.6 °F 18.2 °F 14.0 °F 59% 30.29 in 10.0 mi West 8.1 mph - N/A   Overcast
7:35 PM 26.6 °F 17.5 °F 14.0 °F 59% 30.30 in 10.0 mi West 9.2 mph - N/A   Overcast
7:55 PM 26.6 °F 16.8 °F 14.0 °F 59% 30.31 in 10.0 mi West 10.4 mph - N/A   Overcast
8:15 PM 26.6 °F 16.8 °F 14.0 °F 59% 30.32 in 10.0 mi WNW 10.4 mph - N/A   Overcast
8:55 PM 24.8 °F 15.3 °F 12.2 °F 59% 30.34 in 10.0 mi West 9.2 mph - N/A   Mostly Cloudy
9:15 PM 23.0 °F 15.8 °F 12.2 °F 63% 30.34 in 10.0 mi West 5.8 mph - N/A   Partly Cloudy
9:35 PM 23.0 °F 15.8 °F 12.2 °F 63% 30.35 in 10.0 mi West 5.8 mph - N/A   Scattered Clouds
9:55 PM 23.0 °F 15.8 °F 12.2 °F 63% 30.36 in 10.0 mi West 5.8 mph - N/A   Scattered Clouds
10:15 PM 19.4 °F 10.4 °F 8.6 °F 63% 30.37 in 10.0 mi WSW 6.9 mph - N/A   Clear
10:35 PM 21.2 °F 13.6 °F 8.6 °F 58% 30.37 in 10.0 mi West 5.8 mph - N/A   Clear
10:55 PM 19.4 °F 11.5 °F 10.4 °F 68% 30.37 in 10.0 mi West 5.8 mph - N/A   Clear
11:15 PM 19.4 °F 11.5 °F 8.6 °F 63% 30.37 in 10.0 mi West 5.8 mph - N/A   Clear
11:55 PM 17.6 °F 8.2 °F 6.8 °F 63% 30.37 in 10.0 mi West 6.9 mph - N/A   Clear